Volver al catálogo

ONEWEB-0225

ActivoComunicacionesPO
NORAD 48799·PAYLOAD·🇬🇧 United Kingdom

Lanzado May 28, 2021 desde Vostochny Cosmodrome

Loading…

Próximos Pases (próximas 24 horas)

TLE

ActualizadoSource: CelesTrak SupGP

Época: Sep 14, 2026, 21:17 UTC

1 48799C 21045AJ  26257.88734213  .00003011  00000+0  80069-2 0  2573
2 48799  87.8983 241.3152 0002248  71.8921 312.2244 13.15542936    12

Sigue ONEWEB-0225 en tiempo real con AllMySat

Download on the App Store